Date,TemperatureHighF,TemperatureAvgF,TemperatureLowF,DewpointHighF,DewpointAvgF,DewpointLowF,HumidityHigh,HumidityAvg,HumidityLow,PressureMaxIn,PressureMinIn,WindSpeedMaxMPH,WindSpeedAvgMPH,GustSpeedMaxMPH,PrecipitationSumIn
2013-1-1,41,36,31,38,35,31,99,94,83,30.48,30.34,9,2,11,0.00
2013-1-2,44,34,29,38,31,27,99,90,50,30.34,30.17,8,1,11,0.01
2013-1-3,43,34,26,37,30,26,98,87,57,30.18,30.07,11,2,15,0.27
2013-1-4,47,43,38,44,42,37,99,96,88,30.26,30.14,10,3,20,0.01
2013-1-5,45,42,40,43,41,40,100,96,83,30.17,30.08,6,2,10,0.05
2013-1-6,45,43,41,42,41,40,98,93,88,30.14,29.94,17,6,21,0.01
2013-1-7,52,46,42,49,45,41,97,94,84,30.12,29.75,15,4,29,0.01
2013-1-8,51,46,41,50,45,40,99,96,94,30.12,29.68,18,6,30,0.69
2013-1-9,50,42,36,49,41,35,99,96,93,29.92,29.65,12,2,22,0.65
2013-1-10,38,36,33,36,35,32,98,96,92,30.10,29.92,3,1,5,0.01
2013-1-11,38,32,28,31,27,23,96,82,55,30.31,30.10,13,3,18,0.00
2013-1-12,37,30,26,32,28,25,98,90,72,30.42,30.30,12,2,14,0.00
2013-1-13,36,31,27,31,29,26,97,91,80,30.48,30.42,3,1,4,0.00
2013-1-14,39,34,31,33,30,29,94,87,74,30.55,30.45,9,1,10,0.00
2013-1-15,40,36,31,37,34,31,98,92,85,30.68,30.55,4,1,6,0.00
2013-1-16,42,34,29,37,32,28,99,93,76,30.66,30.50,9,2,11,0.01
2013-1-17,37,34,31,36,34,30,99,98,96,30.51,30.27,4,1,5,0.00
2013-1-18,38,36,33,37,35,33,99,97,94,30.33,30.24,6,2,9,0.00
2013-1-19,39,37,35,38,36,35,98,96,92,30.37,30.32,9,3,9,0.00
2013-1-20,44,39,34,40,38,34,99,95,86,30.37,30.25,8,2,10,0.00
2013-1-21,40,37,34,39,36,34,98,96,94,30.25,30.12,6,2,9,0.00
2013-1-22,39,35,31,37,34,31,99,97,92,30.12,29.89,2,0,4,0.00
2013-1-23,44,41,37,42,40,36,99,95,84,30.11,29.82,11,3,17,0.25
2013-1-24,44,41,39,42,40,38,99,96,88,30.18,30.02,9,3,14,0.12
2013-1-25,50,44,39,45,42,38,98,92,77,30.03,29.88,15,4,18,0.00
2013-1-26,44,41,39,42,40,38,97,93,89,30.01,29.85,11,2,15,0.10
2013-1-27,43,39,32,40,38,32,100,95,89,30.03,29.95,8,2,11,0.00
2013-1-28,41,38,34,40,38,34,100,98,95,30.06,29.98,3,1,6,0.18
2013-1-29,46,43,40,46,42,39,100,99,95,30.30,30.06,4,1,6,0.25
2013-1-30,47,45,44,46,45,44,100,99,94,30.36,30.28,5,0,7,0.05
2013-1-31,50,47,45,47,46,45,100,96,88,30.37,30.25,12,2,21,0.03
2013-2-1,49,45,41,46,44,40,99,94,84,30.39,30.31,8,1,10,0.00
2013-2-2,46,43,40,43,41,39,98,93,87,30.37,30.23,9,3,13,0.00
2013-2-3,48,44,40,45,42,39,99,94,86,30.27,30.18,11,2,15,0.01
2013-2-4,49,46,43,44,43,42,99,90,79,30.18,29.85,7,3,16,0.00
2013-2-5,48,46,44,46,43,42,96,92,84,29.88,29.79,16,7,24,0.29
2013-2-6,48,44,42,44,42,41,98,92,83,30.01,29.76,13,6,23,0.23
2013-2-7,47,42,34,43,38,33,97,87,69,30.17,29.76,17,4,23,0.07
2013-2-8,44,38,30,40,36,30,99,94,83,30.28,30.18,6,1,7,0.00
2013-2-9,45,41,38,42,40,38,99,95,83,30.32,30.24,2,0,4,0.04
2013-2-10,43,41,39,41,40,39,99,97,92,30.36,30.30,2,0,3,0.01
2013-2-11,47,43,40,43,41,40,99,93,80,30.33,30.30,6,2,10,0.00
2013-2-12,51,46,42,47,44,42,99,94,82,30.38,30.23,10,1,17,0.01
2013-2-13,48,45,44,46,44,43,98,94,87,30.47,30.28,5,1,8,0.09
2013-2-14,47,45,43,45,43,41,98,95,92,30.53,30.46,7,2,12,0.02
2013-2-15,52,46,38,45,43,37,98,91,74,30.53,30.16,10,2,12,0.00
2013-2-16,50,43,37,46,41,36,100,94,80,30.17,30.09,10,2,15,0.00
2013-2-17,44,40,37,40,38,36,98,93,82,30.23,30.09,6,1,6,0.01
2013-2-18,45,40,36,39,37,36,99,90,73,30.09,29.74,13,3,17,0.00
2013-2-19,48,41,33,41,37,32,97,87,63,29.99,29.72,14,2,16,0.00
2013-2-20,45,39,33,41,38,32,99,94,83,30.02,29.96,12,3,19,0.12
2013-2-21,45,42,37,41,40,36,99,92,83,30.04,29.97,29,4,30,0.01
2013-2-22,49,42,36,44,39,33,94,88,72,30.00,29.63,20,8,33,0.24
2013-2-23,48,39,31,39,36,31,99,88,65,30.34,29.87,6,1,8,0.00
2013-2-24,46,43,39,42,39,36,92,87,79,30.34,29.92,19,6,24,0.05
2013-2-25,52,43,33,40,36,27,96,79,39,30.29,29.84,12,2,18,0.09
2013-2-26,47,40,32,39,36,31,99,87,65,30.31,30.17,17,5,20,0.02
2013-2-27,48,42,37,44,40,36,99,93,73,30.27,30.18,10,2,14,0.09
2013-2-28,52,47,42,50,46,42,99,96,90,30.28,30.16,15,5,23,0.25
2013-3-1,56,53,51,52,50,49,96,91,85,30.30,30.22,24,10,35,0.01
2013-3-2,55,49,40,50,46,39,95,88,76,30.24,30.03,21,7,31,0.04
2013-3-3,47,40,34,39,37,33,99,87,66,30.29,30.18,7,2,10,0.00
2013-3-4,50,40,32,38,34,31,99,81,52,30.29,29.91,8,2,13,0.00
2013-3-5,50,42,36,41,39,34,98,87,66,29.91,29.71,4,1,7,0.13
2013-3-6,43,42,40,42,41,40,98,95,90,29.87,29.57,11,2,15,0.32
2013-3-7,50,44,40,44,42,40,99,92,73,30.07,29.87,11,2,13,0.06
2013-3-8,50,42,35,42,39,34,99,88,68,30.23,30.06,11,2,13,0.00
2013-3-9,52,40,31,43,38,31,99,90,66,30.48,30.23,7,2,9,0.00
2013-3-10,47,42,36,43,40,35,98,93,80,30.48,30.41,4,1,7,0.01
2013-3-11,49,46,42,46,43,42,98,92,77,30.43,30.12,8,2,13,0.01
2013-3-12,54,51,47,51,49,46,96,91,85,30.11,30.02,21,10,27,0.01
2013-3-13,54,52,50,50,49,47,94,89,82,30.15,30.05,16,9,30,0.00
2013-3-14,54,51,48,48,47,44,97,86,68,30.10,29.99,15,8,28,0.00
2013-3-15,58,51,43,50,48,43,99,87,71,30.17,30.10,13,3,25,0.00
2013-3-16,53,46,35,46,42,34,97,87,56,30.11,29.84,15,4,38,0.00
2013-3-17,48,40,32,38,35,32,99,85,58,30.16,29.95,12,3,15,0.00
2013-3-18,50,44,38,40,37,35,91,79,62,30.22,30.08,11,4,18,0.00
2013-3-19,52,42,35,44,38,32,97,87,48,30.21,29.58,7,2,14,0.55
2013-3-20,52,47,37,50,42,33,97,84,61,29.98,29.33,22,7,37,0.64
2013-3-21,45,38,32,38,35,31,98,88,65,30.19,29.99,13,2,15,0.02
2013-3-22,45,37,32,36,33,30,98,86,63,30.36,30.19,7,1,10,0.04
2013-3-23,47,38,32,37,33,31,98,82,54,30.38,30.28,7,2,10,0.00
2013-3-24,53,40,30,37,33,28,98,78,39,30.29,30.10,4,1,6,0.00
2013-3-25,61,48,34,39,34,27,97,63,32,30.11,29.92,5,1,6,0.00
2013-3-26,58,49,44,45,40,36,83,70,53,30.00,29.94,3,1,5,0.00
2013-3-27,55,48,43,47,42,39,95,80,59,29.97,29.93,4,1,7,0.00
2013-3-28,60,49,42,50,46,41,98,89,63,30.13,29.97,4,1,8,0.12
2013-3-29,62,50,42,49,45,42,99,85,54,30.23,30.13,5,1,8,0.01
2013-3-30,61,50,38,48,43,38,98,78,51,30.25,30.05,9,2,15,0.00
2013-3-31,66,53,42,47,43,40,93,71,44,30.05,29.89,10,2,12,0.00
2013-4-1,60,50,43,50,46,42,97,85,60,30.13,29.95,12,2,17,0.00
2013-4-2,56,48,42,48,45,41,97,87,69,30.17,30.13,11,2,14,0.00
2013-4-3,58,50,42,48,45,42,98,84,63,30.18,29.94,6,1,7,0.00
2013-4-4,54,51,48,53,49,45,97,93,88,29.93,29.61,22,4,30,0.42
2013-4-5,57,52,48,51,49,47,97,88,75,29.82,29.68,20,8,30,0.23
2013-4-6,55,50,46,48,45,42,96,84,66,29.87,29.65,19,8,29,0.17
2013-4-7,47,44,41,44,42,40,97,93,83,29.87,29.51,8,2,13,0.76
2013-4-8,55,48,43,48,44,42,98,87,68,30.24,29.87,8,2,11,0.05
2013-4-9,54,48,40,44,42,38,99,82,55,30.32,30.14,17,5,20,0.00
2013-4-10,58,52,46,53,47,43,96,83,71,30.23,29.90,16,6,24,0.15
2013-4-11,51,46,43,45,42,39,95,85,64,30.28,30.18,8,2,10,0.05
2013-4-12,46,43,39,44,40,38,98,91,75,30.18,29.64,15,6,26,0.06
2013-4-13,50,43,36,43,40,34,98,88,71,29.98,29.72,16,3,22,0.33
2013-4-14,51,43,37,41,39,33,99,86,52,29.99,29.90,9,2,13,0.06
2013-4-15,53,44,34,41,38,34,99,82,55,30.16,29.93,16,3,20,0.00
2013-4-16,56,45,35,43,36,27,99,73,34,30.38,30.17,12,3,15,0.00
2013-4-17,58,47,36,44,40,34,95,78,46,30.43,30.38,10,3,18,0.00
2013-4-18,52,48,43,48,44,39,91,86,80,30.43,30.15,16,6,27,0.00
2013-4-19,53,51,50,51,49,48,97,93,90,30.16,30.03,19,3,27,0.26
2013-4-20,54,49,46,50,47,45,98,93,83,30.25,30.16,5,2,8,0.10
2013-4-21,52,46,40,46,43,39,98,88,67,30.35,30.21,13,3,16,0.06
2013-4-22,58,48,36,43,33,21,97,62,25,30.50,30.36,15,4,19,0.00
2013-4-23,59,48,33,41,33,25,91,62,27,30.41,30.23,13,2,15,0.00
2013-4-24,66,53,38,44,38,32,95,61,29,30.31,30.05,10,2,14,0.00
2013-4-25,69,55,40,47,41,36,89,63,36,30.13,30.03,8,2,9,0.00
2013-4-26,63,52,43,52,46,40,97,82,48,30.25,30.14,11,2,13,0.00
2013-4-27,58,53,49,49,47,44,91,80,71,30.18,30.11,19,3,22,0.00
2013-4-28,56,50,47,48,46,42,94,85,65,30.20,29.92,17,4,24,0.01
2013-4-29,54,49,44,47,40,33,94,75,46,30.14,29.88,15,5,15,0.00
2013-4-30,51,45,36,39,36,33,95,73,52,30.43,30.14,9,2,14,0.00
2013-5-1,60,48,35,42,35,27,96,64,28,30.56,30.43,10,2,14,0.00
2013-5-2,63,54,42,42,38,33,89,58,34,30.53,30.35,15,4,18,0.00
2013-5-3,66,58,48,48,45,40,80,62,46,30.36,30.20,17,6,22,0.00
2013-5-4,75,63,52,47,43,35,81,53,24,30.21,29.98,15,4,18,0.00
2013-5-5,81,66,51,51,45,40,82,51,24,29.99,29.75,12,2,13,0.00
2013-5-6,82,64,49,52,49,46,90,62,28,29.83,29.72,5,1,9,0.00
2013-5-7,70,58,51,56,51,48,94,80,59,29.98,29.80,9,3,15,0.00
2013-5-8,63,55,50,54,51,49,95,86,71,30.13,29.98,9,3,10,0.00
2013-5-9,67,55,46,56,51,46,98,87,65,30.21,30.10,6,1,8,0.00
2013-5-10,73,59,46,57,51,45,98,77,48,30.19,30.09,6,2,9,0.00
2013-5-11,76,61,51,55,52,49,92,74,46,30.15,29.97,9,2,13,0.00
2013-5-12,67,61,56,57,56,53,97,83,66,30.06,29.98,15,4,21,0.05
2013-5-13,64,57,46,55,50,40,94,78,51,30.16,29.91,24,5,40,0.17
2013-5-14,61,53,45,47,44,41,95,73,48,30.20,30.10,9,2,11,0.00
2013-5-15,63,53,45,52,48,44,95,82,53,30.11,29.99,14,3,17,0.02
2013-5-16,67,58,54,53,52,48,95,80,52,29.99,29.85,10,2,11,0.00
2013-5-17,64,57,53,52,50,47,90,78,54,30.03,29.92,17,6,22,0.01
2013-5-18,60,55,49,51,48,47,92,79,64,30.25,30.03,10,3,19,0.00
2013-5-19,61,55,50,52,50,47,95,83,66,30.38,30.26,6,1,8,0.00
2013-5-20,64,54,46,51,48,45,97,82,61,30.34,29.89,12,3,15,0.00
2013-5-21,53,50,46,49,47,45,97,91,82,29.89,29.76,8,2,10,0.89
2013-5-22,52,49,46,49,47,45,98,93,85,29.92,29.83,11,2,12,0.20
2013-5-23,54,49,45,47,45,43,98,87,68,29.98,29.91,14,3,22,0.02
2013-5-24,61,53,45,49,47,44,98,80,59,30.02,29.95,9,3,18,0.01
2013-5-25,62,55,50,51,48,45,96,79,54,30.02,29.95,12,4,19,0.04
2013-5-26,63,54,49,54,51,48,97,88,70,29.97,29.93,15,4,19,0.08
2013-5-27,58,55,51,55,52,49,94,91,85,29.93,29.68,13,6,18,0.30
2013-5-28,63,56,52,52,50,47,91,79,60,29.85,29.74,21,8,28,0.01
2013-5-29,55,52,50,51,50,48,97,91,84,29.94,29.68,12,2,16,0.26
2013-5-30,60,54,48,51,48,46,95,83,63,30.22,29.94,19,4,29,0.02
2013-5-31,63,55,48,50,48,44,96,78,53,30.32,30.22,7,1,9,0.00
2013-6-1,67,58,49,51,49,46,93,73,53,30.23,30.04,11,3,16,0.00
2013-6-2,67,60,54,54,50,48,92,72,62,30.07,30.02,10,2,13,0.00
2013-6-3,70,57,48,56,51,47,97,84,56,30.11,30.04,7,2,11,0.00
2013-6-4,74,61,47,54,50,46,98,70,40,30.11,30.00,9,3,11,0.00
2013-6-5,73,62,50,59,54,48,93,75,59,30.07,30.01,9,2,11,0.00
2013-6-6,75,62,50,55,52,49,96,72,43,30.04,29.99,9,2,12,0.00
2013-6-7,65,58,53,55,52,49,88,78,66,30.13,30.01,9,3,13,0.00
2013-6-8,64,58,54,53,50,47,81,74,63,30.17,30.08,8,2,10,0.00
2013-6-9,61,56,51,52,49,47,91,79,64,30.10,30.01,12,3,14,0.00
2013-6-10,66,57,46,52,48,45,93,76,54,30.02,29.86,9,2,10,0.00
2013-6-11,61,56,49,52,49,46,90,78,67,30.07,29.92,10,3,13,0.03
2013-6-12,65,55,45,55,48,44,98,80,53,30.12,30.08,12,3,21,0.07
2013-6-13,65,57,50,52,50,48,95,79,59,30.20,30.12,7,1,11,0.00
2013-6-14,64,57,53,52,50,49,90,80,61,30.21,30.05,8,2,11,0.00
2013-6-15,72,60,49,53,50,48,97,72,45,30.04,29.90,12,3,14,0.00
2013-6-16,70,60,50,58,54,49,95,80,61,30.07,29.98,7,2,10,0.00
2013-6-17,73,60,51,56,53,49,97,78,44,30.08,29.88,9,3,15,0.15
2013-6-18,71,62,54,54,50,42,95,69,38,29.95,29.85,12,4,19,0.00
2013-6-19,63,57,50,55,52,49,96,83,69,29.98,29.90,6,1,9,0.00
2013-6-20,59,56,54,55,53,51,95,89,78,30.09,29.93,8,2,11,0.19
2013-6-21,68,59,54,54,52,50,96,80,57,30.14,30.09,6,2,8,0.01
2013-6-22,73,62,49,57,53,48,98,75,51,30.11,29.84,9,2,14,0.00
2013-6-23,69,62,57,62,58,54,97,85,72,29.84,29.58,5,1,8,0.05
2013-6-24,66,62,57,61,56,53,97,84,62,29.67,29.55,17,7,28,0.05
2013-6-25,71,61,56,57,56,55,97,85,58,29.82,29.65,15,4,35,0.68
2013-6-26,69,62,56,61,58,55,97,86,68,30.05,29.82,12,4,19,0.13
2013-6-27,67,62,57,63,60,56,98,93,84,30.18,30.03,8,2,14,0.13
2013-6-28,86,69,58,65,62,57,98,80,46,30.17,30.01,7,2,13,0.00
2013-6-29,80,69,61,66,62,59,96,79,58,30.08,29.97,7,2,10,0.00
2013-6-30,88,72,56,65,60,54,92,69,41,30.00,29.82,7,2,10,0.00
2013-7-1,82,71,61,66,62,58,90,73,57,30.00,29.89,7,2,10,0.00
2013-7-2,74,67,58,63,59,56,95,76,57,30.08,30.01,8,3,11,0.00
2013-7-3,72,65,58,59,54,46,87,69,41,30.14,30.02,10,3,12,0.00
2013-7-4,68,62,57,58,54,53,88,78,61,30.11,30.01,10,3,16,0.00
2013-7-5,72,63,52,60,56,51,97,79,59,30.02,29.93,7,2,9,0.00
2013-7-6,75,63,52,57,54,51,97,76,48,29.96,29.85,8,2,12,0.00
2013-7-7,74,63,53,63,58,52,96,82,64,29.93,29.85,9,3,12,0.00
2013-7-8,76,62,56,61,57,54,94,83,58,30.08,29.92,7,2,9,0.00
2013-7-9,79,66,54,60,57,53,97,73,48,30.09,29.97,10,2,12,0.00
2013-7-10,69,61,55,58,55,51,94,80,67,30.05,29.94,8,3,10,0.00
2013-7-11,65,59,56,52,50,49,81,73,58,30.07,29.97,8,3,14,0.00
2013-7-12,65,57,51,54,51,48,93,81,60,30.09,30.00,6,1,9,0.00
2013-7-13,73,61,47,53,49,41,96,69,33,30.19,30.09,12,2,16,0.00
2013-7-14,76,63,49,54,51,46,96,67,38,30.12,29.98,10,2,12,0.00
2013-7-15,78,66,52,54,50,46,92,60,33,30.03,29.86,21,5,21,0.00
2013-7-16,83,70,57,58,51,47,78,53,30,29.87,29.78,14,3,19,0.00
2013-7-17,69,65,59,58,57,55,87,74,65,30.17,29.84,17,5,26,0.00
2013-7-18,74,64,56,60,56,54,92,76,59,30.21,30.10,8,2,9,0.00
2013-7-19,75,63,53,62,57,52,96,82,62,30.16,30.02,9,2,9,0.00
2013-7-20,71,61,55,61,57,53,97,86,70,30.07,29.94,7,2,8,0.00
2013-7-21,72,61,53,62,57,52,96,86,69,29.97,29.88,7,2,10,0.00
2013-7-22,75,64,56,62,58,54,97,82,61,30.04,29.92,7,2,11,0.00
2013-7-23,80,64,53,59,54,49,97,75,38,30.06,29.94,9,2,11,0.00
2013-7-24,79,66,53,58,55,52,95,72,43,30.04,29.97,9,2,10,0.00
2013-7-25,79,65,51,58,54,50,96,72,47,30.08,30.02,7,2,10,0.00
2013-7-26,79,65,52,58,54,51,95,71,41,30.13,30.05,10,3,12,0.00
2013-7-27,74,62,51,56,53,49,95,75,48,30.15,29.97,8,2,11,0.00
2013-7-28,69,59,53,57,54,52,95,83,64,30.01,29.93,13,4,18,0.00
2013-7-29,72,61,53,58,54,51,96,79,58,29.99,29.93,10,2,12,0.00
2013-7-30,74,62,54,61,56,53,96,81,58,30.12,29.99,7,2,12,0.00
2013-7-31,68,60,53,61,57,52,96,89,76,30.11,29.97,7,1,11,0.00
2013-8-1,68,62,56,58,56,54,95,82,70,30.04,30.00,12,5,18,0.00
2013-8-2,61,60,58,59,57,55,97,91,85,30.11,30.02,7,2,11,0.16
2013-8-3,72,63,58,60,58,56,98,84,60,30.12,30.04,7,2,10,0.00
2013-8-4,77,65,53,60,57,52,97,79,56,30.05,29.92,11,2,12,0.00
2013-8-5,79,66,54,62,58,53,97,77,55,30.00,29.90,7,2,9,0.00
2013-8-6,80,65,52,60,55,50,96,71,41,29.99,29.89,8,2,9,0.00
2013-8-7,80,66,52,59,55,51,96,72,42,29.99,29.92,7,2,9,0.00
2013-8-8,78,64,55,61,57,54,96,80,53,30.02,29.91,9,2,11,0.00
2013-8-9,78,66,54,61,57,53,96,75,52,29.95,29.81,7,2,9,0.00
2013-8-10,74,65,60,64,60,58,96,85,68,29.99,29.87,8,2,14,0.10
2013-8-11,72,62,58,59,57,55,93,83,61,30.05,29.97,8,2,11,0.00
2013-8-12,75,63,56,59,56,54,93,79,53,30.06,29.98,11,2,12,0.00
2013-8-13,77,64,54,59,56,53,96,76,51,30.08,29.91,8,2,10,0.00
2013-8-14,80,64,54,63,57,52,96,81,39,29.93,29.86,11,2,18,0.07
2013-8-15,68,64,62,65,63,61,98,95,88,29.97,29.90,8,1,11,0.03
2013-8-16,80,68,61,64,61,54,98,80,40,29.98,29.91,9,2,13,0.00
2013-8-17,73,65,57,62,59,55,95,81,64,30.06,29.98,13,3,18,0.00
2013-8-18,72,63,58,61,58,56,95,83,65,30.10,30.05,11,3,16,0.00
2013-8-19,74,64,59,60,57,54,92,78,56,30.09,30.04,9,2,15,0.00
2013-8-20,72,64,58,55,53,48,85,67,43,30.15,30.05,15,4,16,0.00
2013-8-21,75,64,50,56,52,48,95,68,44,30.07,29.91,17,5,20,0.00
2013-8-22,80,66,51,59,54,49,92,67,41,29.93,29.77,4,1,8,0.00
2013-8-23,74,66,60,59,57,54,90,75,53,29.86,29.80,15,4,23,0.00
2013-8-24,71,63,56,59,57,53,95,83,62,29.90,29.84,9,2,12,0.03
2013-8-25,70,61,52,57,55,51,98,82,62,29.93,29.84,6,2,9,0.00
2013-8-26,75,62,55,60,56,51,96,80,44,29.93,29.82,17,3,25,0.05
2013-8-27,75,65,59,61,59,55,95,80,59,29.93,29.77,8,3,14,0.03
2013-8-28,77,66,59,63,61,57,97,83,57,29.87,29.81,12,2,16,0.20
2013-8-29,71,65,62,66,63,61,98,93,81,29.97,29.83,13,4,30,1.18
2013-8-30,73,66,58,62,58,55,98,78,55,30.11,29.97,18,5,23,0.00
2013-8-31,75,64,53,60,56,53,98,79,54,30.06,29.82,9,3,11,0.00
2013-9-1,79,65,55,63,58,54,97,81,47,29.87,29.76,7,2,13,0.00
2013-9-2,77,65,57,62,58,55,95,80,57,29.93,29.83,5,1,8,0.00
2013-9-3,71,63,58,65,61,56,98,91,72,30.01,29.93,5,1,7,0.19
2013-9-4,68,62,56,63,60,56,99,91,79,30.04,29.99,10,2,11,0.01
2013-9-5,67,62,58,62,59,57,98,93,75,30.02,29.91,10,2,14,0.27
2013-9-6,69,63,60,64,61,59,98,94,84,30.08,29.92,8,2,13,0.82
2013-9-7,70,63,58,62,60,58,99,90,72,30.08,30.00,5,1,7,0.00
2013-9-8,76,63,54,63,58,54,99,86,62,30.09,30.00,7,1,8,0.01
2013-9-9,73,62,55,63,58,54,98,88,68,30.05,29.96,6,1,7,0.00
2013-9-10,75,63,52,62,58,52,99,84,63,29.98,29.87,10,2,17,0.00
2013-9-11,87,70,58,62,59,56,95,72,37,29.92,29.84,6,1,10,0.00
2013-9-12,74,63,57,64,60,56,98,89,69,29.99,29.88,6,1,8,0.00
2013-9-13,65,61,57,61,59,56,98,94,88,29.95,29.85,5,1,5,0.01
2013-9-14,66,62,57,61,59,57,97,92,82,29.86,29.72,7,1,8,0.00
2013-9-15,64,59,56,61,58,55,98,96,92,29.79,29.70,9,2,11,0.27
2013-9-16,64,60,57,60,58,56,98,93,86,29.91,29.77,11,4,17,0.17
2013-9-17,62,58,53,56,55,53,99,92,80,29.92,29.85,7,1,7,0.00
2013-9-18,67,56,51,55,52,50,99,87,57,30.05,29.92,7,1,11,0.00
2013-9-19,72,59,48,56,52,48,99,80,48,30.03,29.73,5,1,6,0.01
2013-9-20,70,59,49,58,54,48,98,84,60,29.73,29.56,12,4,17,0.07
2013-9-21,65,58,53,57,54,52,99,90,69,29.70,29.62,4,1,7,0.00
2013-9-22,61,57,55,57,55,53,95,91,87,29.69,29.53,18,8,26,0.28
2013-9-23,61,55,50,55,53,50,98,91,75,29.95,29.70,14,5,21,0.35
2013-9-24,58,52,47,53,50,47,99,93,76,29.94,29.82,10,2,12,0.58
2013-9-25,59,52,47,51,49,46,98,89,67,30.02,29.85,15,4,20,0.07
2013-9-26,61,50,42,53,48,42,99,92,71,30.11,30.01,3,1,5,0.00
2013-9-27,57,54,47,54,52,46,99,92,86,30.09,29.82,21,6,31,0.01
2013-9-28,60,56,52,59,54,50,98,94,89,29.81,29.30,21,9,33,1.36
2013-9-29,55,53,51,53,51,48,96,92,86,29.50,29.12,22,10,31,1.30
2013-9-30,59,53,48,53,49,46,96,86,71,29.88,29.38,17,6,32,0.02
2013-10-1,58,52,48,49,48,45,95,85,66,30.08,29.88,19,6,25,0.15
2013-10-2,54,50,46,49,48,45,98,92,83,30.16,30.03,12,4,15,0.19
2013-10-3,56,50,45,51,47,44,99,93,76,30.44,30.17,6,1,10,0.00
2013-10-4,60,49,41,53,47,41,99,93,72,30.46,30.34,5,1,8,0.01
2013-10-5,67,52,43,54,48,43,99,86,49,30.34,30.12,4,1,5,0.00
2013-10-6,71,56,43,52,47,40,99,76,34,30.11,29.84,15,4,23,0.05
2013-10-7,60,55,50,53,51,48,95,87,72,29.99,29.84,18,4,25,0.00
2013-10-8,55,50,46,50,47,42,98,90,69,30.06,29.94,10,2,21,0.28
2013-10-9,56,48,41,49,45,40,98,88,67,30.11,29.94,4,1,6,0.00
2013-10-10,57,50,46,50,48,45,98,91,74,30.06,29.92,5,1,8,0.00
2013-10-11,55,51,47,50,48,47,97,91,75,30.12,30.05,5,1,5,0.00
2013-10-12,55,50,46,50,48,45,98,91,74,30.20,30.05,13,2,17,0.10
2013-10-13,57,48,41,49,44,41,99,89,60,30.35,30.20,8,1,11,0.01
2013-10-14,57,48,41,47,44,40,99,88,65,30.41,30.35,12,3,13,0.00
2013-10-15,57,47,41,51,46,40,99,94,76,30.37,30.16,4,1,5,0.01
2013-10-16,55,49,44,51,48,44,99,93,82,30.19,30.13,10,2,15,0.00
2013-10-17,56,49,43,51,47,43,99,94,81,30.26,30.19,7,1,9,0.01
2013-10-18,56,47,42,51,46,42,99,96,78,30.23,30.13,7,1,9,0.00
2013-10-19,49,46,42,48,46,41,99,97,94,30.18,30.13,7,2,8,0.01
2013-10-20,49,48,47,48,47,46,98,96,94,30.19,30.14,10,3,10,0.00
2013-10-21,50,48,47,49,47,47,99,98,95,30.16,30.09,8,3,10,0.00
2013-10-22,55,49,46,52,48,45,99,96,86,30.11,30.02,7,2,10,0.00
2013-10-23,57,48,44,52,48,44,100,96,83,30.04,29.96,5,1,7,0.00
2013-10-24,50,47,42,49,46,42,100,98,94,30.11,30.01,5,1,6,0.01
2013-10-25,52,49,47,50,48,47,99,97,89,30.30,30.11,4,1,5,0.04
2013-10-26,54,50,48,50,48,47,99,91,80,30.31,30.18,12,3,14,0.00
2013-10-27,59,53,47,49,46,41,98,79,56,30.18,29.87,19,6,28,0.10
2013-10-28,56,54,47,41,35,30,60,49,40,29.92,29.88,26,8,28,0.00
2013-10-29,54,44,35,44,38,32,96,79,56,30.01,29.92,6,1,7,0.00
2013-10-30,55,47,37,49,43,36,98,87,75,30.09,30.01,15,4,20,0.00
2013-10-31,54,51,49,51,48,45,96,90,82,30.24,30.04,18,3,22,0.00
2013-11-1,58,52,47,51,50,46,98,90,78,30.25,29.80,7,2,12,0.01
2013-11-2,53,49,41,51,46,40,96,88,73,29.87,29.41,27,6,41,0.33
2013-11-3,49,41,36,44,39,35,99,93,70,30.09,29.86,11,1,12,0.02
2013-11-4,48,42,35,42,40,35,99,91,72,30.17,30.03,5,1,8,0.01
2013-11-5,48,46,44,46,45,41,98,96,89,30.24,29.99,8,1,15,0.03
2013-11-6,50,46,42,47,45,42,99,95,85,30.30,30.00,5,1,7,0.07
2013-11-7,54,49,47,52,48,46,99,95,89,30.00,29.67,18,6,25,0.70
2013-11-8,52,46,40,47,45,40,99,94,78,30.14,29.94,5,1,6,0.00
2013-11-9,50,45,40,47,44,40,99,96,87,30.13,30.05,3,0,4,0.07
2013-11-10,49,47,45,46,45,44,99,92,85,30.14,30.09,9,2,14,0.09
2013-11-11,55,47,43,50,45,42,99,92,74,30.14,29.99,3,1,5,0.00
2013-11-12,56,52,43,54,50,43,99,94,80,30.32,30.00,13,5,23,0.14
2013-11-13,54,51,48,51,49,47,98,92,78,30.41,30.29,6,1,14,0.00
2013-11-14,50,47,42,48,46,42,100,97,91,30.29,30.04,4,0,5,0.07
2013-11-15,49,45,41,47,44,41,100,95,89,30.04,29.30,17,3,27,0.02
2013-11-16,48,42,38,44,40,37,100,92,73,29.74,29.32,4,1,9,0.00
2013-11-17,51,45,36,48,43,35,99,92,85,29.86,29.73,13,5,21,0.00
2013-11-18,52,49,46,51,48,45,97,95,90,29.86,29.50,13,5,23,0.77
2013-11-19,52,44,39,51,39,26,97,84,56,30.06,29.50,15,3,21,0.10
2013-11-20,42,37,32,34,31,27,95,78,64,30.49,30.07,13,3,18,0.00
2013-11-21,42,35,30,34,30,26,97,83,54,30.65,30.50,10,2,12,0.00
2013-11-22,44,37,31,36,33,30,97,85,66,30.64,30.44,15,2,15,0.01
2013-11-23,48,39,34,40,36,33,98,89,69,30.44,30.19,4,1,9,0.00
2013-11-24,47,40,36,44,39,35,99,96,86,30.24,30.15,5,1,6,0.01
2013-11-25,47,39,35,44,38,35,100,97,84,30.29,30.24,2,1,5,0.00
2013-11-26,50,42,34,45,39,34,100,92,70,30.25,30.07,7,1,10,0.01
2013-11-27,53,45,37,46,42,37,98,89,71,30.07,29.95,4,1,6,0.00
2013-11-28,42,38,34,42,38,34,100,99,98,30.16,30.01,3,1,4,0.01
2013-11-29,47,42,36,46,41,35,100,98,94,30.29,30.16,7,1,9,0.01
2013-11-30,50,48,46,48,46,45,97,92,87,30.29,30.04,18,7,25,0.00
2013-12-1,53,49,43,51,47,40,98,92,84,30.03,29.71,16,4,23,0.00
2013-12-2,43,38,33,41,35,29,98,87,68,30.05,29.78,9,2,17,0.03
2013-12-3,39,36,34,28,24,20,70,61,48,30.29,30.05,22,8,29,0.00
2013-12-4,37,32,26,28,25,23,88,76,58,30.34,30.28,10,3,12,0.00
2013-12-5,34,28,23,30,25,20,95,87,71,30.31,30.18,5,2,7,0.00
2013-12-6,33,30,27,24,16,10,86,59,45,30.23,30.13,14,6,19,0.00
2013-12-7,30,26,19,18,13,8,81,60,40,30.41,30.23,13,6,19,0.00
2013-12-8,31,25,19,22,18,14,89,74,56,30.56,30.40,4,1,6,0.00
2013-12-9,32,28,21,27,24,19,93,82,71,30.57,30.47,7,2,11,0.00
2013-12-10,38,34,28,35,32,27,95,92,86,30.48,30.40,6,1,7,0.00
2013-12-11,37,32,28,36,32,28,99,98,94,30.40,30.15,3,1,4,0.00
2013-12-12,43,38,31,41,36,30,99,93,79,30.15,30.01,16,6,28,0.01
2013-12-13,47,44,41,46,43,40,98,95,92,30.38,30.09,10,2,14,0.00
2013-12-14,49,46,44,46,44,43,98,92,86,30.40,30.28,15,5,24,0.00
2013-12-15,50,47,45,48,46,44,99,94,89,30.43,30.27,12,2,30,0.02
2013-12-16,47,43,37,45,42,37,99,97,90,30.47,30.25,3,0,5,0.01
2013-12-17,42,40,38,41,40,38,100,98,95,30.25,30.09,7,1,10,0.00
2013-12-18,44,41,36,42,37,31,98,87,62,30.15,30.00,11,2,17,0.03
2013-12-19,40,37,33,35,27,23,88,69,51,30.33,30.14,10,2,14,0.00
2013-12-20,40,37,33,40,35,29,98,93,79,30.18,29.69,19,5,27,0.04
2013-12-21,42,42,40,42,41,40,99,97,95,30.14,29.83,4,1,6,0.10
2013-12-22,49,44,42,48,44,42,100,99,94,30.27,30.13,14,1,21,0.04
2013-12-23,53,48,37,50,45,36,98,91,79,30.49,30.09,23,5,32,0.00
2013-12-24,45,38,32,41,37,31,99,96,82,30.61,30.50,3,1,4,0.01
2013-12-25,42,37,32,39,36,32,99,96,89,30.52,30.38,3,1,4,0.00
2013-12-26,42,36,33,39,36,33,99,97,92,30.39,30.19,6,1,7,0.01
2013-12-27,44,39,32,44,38,32,100,98,95,30.35,30.08,8,1,11,0.02
2013-12-28,45,41,35,43,41,35,100,98,91,30.51,30.35,2,0,5,0.00
2013-12-29,43,40,35,42,40,35,100,97,93,30.47,30.30,6,0,7,0.00
2013-12-30,43,41,40,42,41,39,99,97,94,30.30,30.11,7,1,9,0.01
2013-12-31,46,42,38,44,42,38,100,98,92,30.36,30.17,3,0,4,0.00
2014-1-1,44,41,38,43,41,38,100,99,97,30.39,30.23,4,0,6,0.02
2014-1-2,52,46,41,46,43,41,100,91,67,30.23,29.86,22,5,31,0.14